Wetbulb
57.54 57.80 59.94 63.33 65.55 67.43 66.49 64.13 61.91 61.92 61.33 59.23 57.91 57.10 55.77 56.56 56.33 56.31 56.02 55.73 55.00 54.73 54.87 54.18 54.21 54.62 54.08 53.76 54.63 54.22 53.53 52.11 54.34 54.00 54.02 54.18 54.77 54.80 53.50 52.52 51.16 50.99 51.03
56.72 57.26 58.24 62.75 65.18 66.04 66.16 63.41 61.57 60.69 60.63 59.73 58.70 57.89 57.07 56.23 55.89 55.40 54.95 54.69 54.13 54.13 53.94 53.88 53.18 53.75 52.82 53.04 53.13 54.13 52.11 51.38 52.24 51.99 51.46 49.99 52.18 53.48 52.52 52.02 49.46 49.63 49.90
55.16 56.41 57.71 62.36 65.28 64.96 65.38 63.39 61.88 60.88 60.77 60.06 58.74 57.63 57.28 56.09 54.26 53.81 53.19 53.08 53.09 52.67 52.75 52.79 52.64 52.77 53.00 51.78 52.07 51.85 51.87 50.39 50.24 50.88 50.17 48.52 47.72 49.57 51.55 50.68 48.75 47.75 48.09
53.96 55.28 56.37 61.20 64.09 64.26 64.89 63.35 62.15 61.01 60.47 60.03 58.21 57.30 54.51 52.92 53.61 53.22 53.37 52.39 52.26 51.74 51.69 51.74 51.75 51.80 51.75 50.89 50.05 50.56 50.41 50.90 48.77 49.09 48.91 49.50 48.12 46.06 45.57 48.34 47.32 45.97 45.43
52.29 53.38 55.45 58.17 63.27 63.57 63.83 62.26 61.19 60.05 59.47 59.44 59.17 57.25 55.20 54.98 54.53 53.59 51.99 51.52 51.11 50.81 50.46 50.87 50.70 50.34 50.11 49.71 48.96 48.15 47.50 47.58 46.91 46.06 46.16 46.67 46.12 44.50 43.15 42.25 43.90 44.23 44.45
51.19 52.38 54.57 57.67 60.13 62.85 62.91 61.04 59.71 58.08 57.45 57.25 58.07 57.38 55.80 54.98 53.11 51.97 50.24 49.67 49.50 49.22 49.27 49.39 49.44 49.33 47.85 46.56 45.83 45.91 45.59 45.13 44.68 44.28 43.24 42.81 42.57 40.89 41.46 40.24 40.60 39.96 42.71
50.68 50.75 51.22 53.95 56.61 59.37 59.27 58.79 57.21 55.39 55.42 55.59 55.42 56.09 56.01 55.45 52.96 51.09 49.83 47.96 47.75 47.33 47.10 47.52 47.41 46.82 45.77 44.80 44.53 44.42 44.19 44.40 43.66 43.30 42.72 43.10 41.61 41.36 41.32 40.36 39.67 38.56 41.60
50.24 50.38 50.54 51.51 52.74 55.08 56.63 55.85 55.51 53.80 53.36 53.37 53.18 54.25 55.29 53.03 51.41 50.05 48.64 46.88 45.50 44.86 44.76 44.90 43.95 43.16 42.83 42.81 42.73 43.21 43.01 42.98 42.61 41.93 42.11 41.80 40.88 40.43 39.03 38.18 37.30 36.90 39.55
49.13 49.77 50.63 50.85 51.42 52.70 54.85 54.21 53.75 52.03 51.24 51.51 51.21 50.26 50.61 48.82 47.14 46.79 46.20 45.05 42.80 42.02 42.38 42.21 40.90 39.96 39.37 40.08 40.11 39.83 39.97 40.80 40.79 40.54 40.50 39.86 39.23 40.00 40.08 39.83 38.63 36.09 34.10
48.30 48.47 48.90 49.57 50.30 52.02 53.78 53.70 52.84 50.57 49.49 47.78 46.90 46.47 46.11 46.18 44.80 43.73 43.11 42.39 41.54 41.95 41.13 40.50 39.81 39.36 39.21 38.47 38.55 38.37 38.91 38.75 39.57 38.75 37.46 37.66 37.84 38.79 38.30 38.01 38.37 37.82 35.43
48.35 48.62 48.77 49.01 49.85 50.87 50.12 48.43 48.03 45.11 44.56 44.49 43.84 43.13 43.37 43.41 42.42 41.96 41.55 41.29 41.29 40.07 39.94 39.25 36.93 36.67 36.37 36.30 36.43 36.44 37.08 36.88 36.46 36.89 36.39 36.01 37.71 36.77 36.58 37.38 37.53 36.50 36.07
48.43 48.74 48.59 48.39 48.04 47.09 46.51 45.47 44.38 43.25 42.81 42.52 41.92 41.66 41.75 41.75 41.31 40.78 40.26 40.62 39.41 38.70 37.21 36.51 35.05 34.41 34.12 34.94 34.92 34.78 35.85 35.35 34.58 34.83 34.87 34.73 36.35 35.87 36.12 36.43 35.66 35.55 35.63
48.26 48.04 48.44 48.15 46.77 45.64 44.79 43.18 43.16 42.54 41.75 41.40 40.59 39.81 39.41 39.03 38.37 38.44 38.81 39.01 37.54 36.54 35.45 34.84 34.41 33.68 33.17 33.64 34.38 34.80 34.44 34.32 33.99 34.39 34.60 34.49 34.78 34.12 34.19 34.50 34.23 34.43 34.11
47.51 48.58 48.27 44.58 47.54 45.57 44.26 43.51 42.89 42.55 41.79 41.75 40.47 39.82 39.03 38.60 37.76 38.37 38.66 37.81 37.01 36.16 35.77 35.40 34.10 33.40 32.59 32.87 33.25 33.84 33.30 33.14 33.12 33.53 33.98 32.67 31.57 30.72 31.32 32.07 32.68 32.04 31.97
45.89 47.47 47.84 47.44 47.94 45.63 44.81 44.40 43.04 42.36 42.01 41.01 40.30 39.24 38.54 37.00 36.57 36.46 36.55 36.57 36.71 36.13 35.38 34.20 33.75 33.25 33.44 32.70 32.82 33.62 33.25 32.38 31.56 31.71 32.42 29.81 27.45 25.85 26.16 28.32 28.18 28.67 28.93
44.74 46.32 48.15 48.45 46.95 46.82 44.96 44.79 43.35 42.49 41.25 38.78 36.53 35.88 34.13 35.25 35.55 35.81 36.56 36.37 34.77 34.10 33.33 32.69 33.29 32.19 30.12 25.88 26.86 30.28 32.02 31.76 31.44 31.02 31.35 30.91 29.19 28.92 26.24 25.39 24.36 24.51 25.57
45.26 45.90 47.24 48.80 48.55 48.52 46.86 45.43 42.67 40.65 37.80 35.85 34.85 34.68 35.42 35.04 35.04 34.97 35.22 34.62 33.55 33.57 32.92 33.71 33.50 30.67 27.72 25.42 25.56 27.09 32.59 32.03 31.31 31.19 30.88 29.79 30.37 29.14 28.75 28.69 27.93 27.55 25.96
44.62 45.64 46.85 47.38 49.25 50.72 48.96 47.29 43.58 40.46 37.50 35.27 34.36 35.05 35.02 34.61 34.98 34.96 34.22 34.50 34.54 33.48 31.97 32.10 33.25 30.49 27.26 25.10 24.44 25.88 32.05 31.29 30.70 30.04 29.86 30.14 29.68 25.03 24.69 25.26 27.34 28.22 28.88
45.01 45.65 47.00 47.40 48.38 48.96 50.45 46.74 41.76 40.33 36.35 34.15 33.56 34.22 34.87 34.88 34.41 33.80 33.63 33.06 31.91 31.58 31.20 31.64 32.20 30.04 26.77 24.55 23.83 25.59 30.72 29.14 28.52 28.17 28.10 26.99 27.50 21.85 22.05 22.97 24.90 26.13 27.64
45.66 45.87 46.80 47.42 48.06 49.46 50.54 44.80 39.11 37.73 35.11 34.01 33.35 33.32 34.96 33.58 33.25 32.38 31.15 31.70 32.19 31.46 31.44 31.16 32.52 31.39 27.48 24.50 23.55 26.88 30.44 27.93 27.84 27.35 26.51 21.10 21.66 20.41 19.97 20.85 22.69 23.52 24.31
44.11 45.16 45.93 45.87 46.26 47.38 48.73 42.46 38.11 35.83 35.44 34.39 32.49 32.31 32.33 32.07 32.18 31.87 31.37 31.10 30.64 29.88 29.33 29.38 30.84 30.90 29.23 25.89 23.94 24.20 28.97 28.21 26.59 27.21 27.23 27.26 19.38 18.82 18.70 17.96 21.33 20.16 19.06
43.43 44.28 44.69 44.37 43.93 42.98 41.69 37.32 35.30 34.38 33.83 32.63 31.76 31.58 31.65 31.61 31.34 30.66 30.73 30.58 29.40 27.50 27.01 27.03 28.62 30.71 29.10 25.36 23.46 22.47 23.34 21.23 26.49 25.49 26.81 24.75 18.06 17.55 17.25 17.32 16.14 16.61 18.02
43.55 44.80 44.84 43.15 42.04 40.20 37.81 33.88 32.35 32.60 31.73 31.26 30.82 31.10 31.29 31.57 30.89 29.30 28.31 27.70 28.05 27.81 27.43 26.62 27.08 27.28 28.25 26.53 22.88 21.79 20.47 18.38 24.44 25.06 19.52 16.12 16.44 17.01 18.82 18.05 16.26 17.35 21.95
44.01 44.86 43.79 41.41 39.36 38.94 37.01 34.32 33.03 32.86 31.86 31.12 31.17 31.65 30.57 30.07 29.65 28.76 28.07 27.75 27.86 27.59 27.49 27.58 27.86 27.75 27.83 27.04 25.67 25.15 23.51 20.40 20.84 22.06 23.51 21.11 18.79 18.86 20.02 18.79 22.73 22.63 21.94
43.81 44.34 42.59 40.62 38.81 37.56 36.10 34.02 33.56 33.91 33.27 32.89 31.48 30.53 30.12 29.48 27.75 28.03 27.90 28.43 30.16 29.99 29.25 29.87 30.59 28.69 27.11 28.24 27.50 26.44 26.84 26.44 22.66 19.61 23.15 24.46 24.31 23.08 23.52 23.31 22.41 22.51 21.63
43.67 43.74 40.96 38.64 36.75 36.57 34.51 34.60 35.07 35.28 33.49 31.80 30.89 30.47 29.32 29.22 28.58 28.06 28.03 29.14 28.37 27.55 29.20 30.09 31.11 27.97 29.21 26.02 23.91 21.57 19.22 17.54 15.53 19.55 22.83 23.16 23.09 21.76 21.64 20.93 20.83 21.22 19.90
MSLP
998.07 998.43 998.85 999.81 1000.69 1002.08 1003.60 1005.17 1006.69 1007.89 1008.66 1009.08 1009.43 1010.14 1010.68 1011.42 1012.21 1012.82 1013.99 1014.27 1014.54 1014.87 1015.10 1015.25 1015.49 1015.45 1015.55 1015.86 1016.10 1015.95 1015.95 1016.09 1016.15 1015.68 1016.00 1016.49 1017.03 1017.06 1017.10 1017.37 1017.88 1017.91 1018.11
997.40 997.37 997.80 999.17 1000.45 1001.70 1003.07 1004.70 1005.85 1006.96 1007.75 1008.34 1008.97 1009.58 1010.18 1011.14 1011.94 1012.98 1013.92 1014.19 1014.64 1014.77 1015.07 1015.19 1015.49 1015.61 1016.03 1016.29 1016.36 1016.18 1016.02 1016.38 1016.74 1015.82 1015.49 1015.54 1016.26 1016.62 1017.15 1017.49 1018.14 1018.42 1018.16
998.05 997.44 997.56 998.90 1000.30 1001.41 1002.47 1004.08 1005.43 1006.34 1007.15 1007.59 1008.32 1009.18 1010.03 1010.93 1011.85 1012.96 1013.83 1014.50 1014.87 1015.05 1015.33 1015.49 1015.72 1016.06 1016.10 1016.49 1016.70 1016.74 1016.46 1016.15 1016.97 1017.08 1016.59 1015.61 1015.24 1016.01 1016.86 1017.61 1018.32 1018.93 1018.74
1000.32 1000.03 999.41 999.04 1000.39 1001.66 1002.59 1003.83 1004.92 1005.69 1006.71 1007.20 1007.53 1008.18 1008.94 1009.85 1011.19 1012.44 1013.38 1014.30 1014.87 1015.43 1015.74 1016.06 1016.34 1016.40 1016.62 1016.96 1017.18 1017.50 1017.35 1016.84 1016.87 1017.35 1017.54 1017.65 1017.67 1016.64 1016.65 1017.57 1018.39 1018.95 1019.23
1001.22 1001.35 1000.79 999.83 1000.19 1001.59 1002.44 1003.80 1004.84 1005.60 1006.47 1007.01 1007.15 1008.08 1008.98 1009.85 1010.91 1012.03 1013.32 1014.11 1015.04 1015.59 1015.91 1016.30 1016.75 1017.15 1017.34 1017.64 1017.83 1018.13 1018.20 1018.15 1017.90 1018.07 1018.13 1018.34 1018.38 1018.62 1018.26 1017.62 1018.01 1019.01 1019.41
1001.57 1001.89 1001.86 1001.26 1000.54 1001.54 1002.73 1003.73 1004.68 1005.58 1006.69 1007.12 1007.47 1008.06 1008.96 1009.62 1010.80 1012.06 1013.15 1013.97 1014.89 1015.70 1016.33 1016.79 1017.23 1017.64 1018.12 1018.50 1018.75 1018.78 1019.07 1019.10 1019.32 1019.13 1019.05 1019.29 1018.93 1019.21 1019.34 1019.36 1019.32 1019.44 1019.58
1001.62 1001.93 1002.13 1002.36 1001.91 1001.92 1003.38 1004.36 1005.15 1005.97 1006.78 1007.51 1008.05 1008.57 1009.18 1009.46 1010.65 1012.11 1012.96 1013.81 1014.44 1015.37 1016.51 1017.30 1018.14 1018.58 1018.84 1019.20 1019.42 1019.39 1019.60 1019.64 1019.73 1019.87 1019.81 1019.97 1020.48 1020.33 1020.40 1020.16 1019.76 1019.67 1019.37
1002.68 1002.53 1002.86 1002.67 1003.28 1003.53 1003.92 1004.99 1005.72 1006.48 1007.26 1008.00 1008.61 1009.10 1009.40 1010.02 1011.08 1012.51 1013.48 1014.36 1015.20 1015.92 1016.41 1017.36 1019.13 1019.43 1020.24 1019.79 1020.14 1020.20 1020.01 1020.34 1020.30 1020.56 1020.57 1020.13 1020.62 1021.16 1021.01 1020.94 1020.79 1019.83 1019.34
1002.84 1003.49 1003.15 1003.56 1003.81 1004.13 1004.45 1005.35 1006.03 1006.94 1007.77 1008.61 1009.26 1009.65 1010.17 1011.25 1012.43 1013.13 1014.19 1015.06 1016.01 1016.55 1017.17 1018.18 1019.50 1020.07 1020.60 1020.73 1020.56 1020.95 1020.90 1021.03 1020.93 1021.55 1021.23 1020.81 1020.78 1021.28 1021.48 1021.64 1021.48 1021.15 1020.49
1002.71 1003.62 1004.19 1004.51 1004.83 1004.91 1004.95 1005.79 1006.32 1007.48 1008.53 1009.35 1010.21 1010.72 1011.17 1012.03 1013.16 1013.92 1014.76 1015.81 1016.60 1016.91 1017.79 1018.40 1019.45 1020.49 1020.91 1021.05 1021.09 1021.16 1021.43 1021.40 1021.79 1021.66 1021.79 1021.50 1021.41 1021.32 1021.88 1022.01 1021.85 1021.91 1021.78
1002.66 1003.53 1004.25 1005.18 1005.31 1005.55 1006.29 1007.33 1007.68 1008.77 1009.52 1010.51 1011.14 1011.72 1012.18 1012.92 1013.72 1014.44 1015.58 1016.55 1017.08 1017.47 1018.08 1019.38 1020.36 1020.91 1021.41 1021.06 1021.53 1021.73 1021.93 1021.92 1021.98 1021.90 1022.00 1022.21 1021.64 1021.72 1022.05 1022.07 1022.13 1022.32 1022.42
1002.89 1003.69 1004.43 1005.26 1005.76 1006.72 1007.55 1008.32 1009.29 1010.00 1010.81 1011.40 1011.65 1012.37 1013.10 1013.75 1014.45 1015.09 1015.83 1016.88 1017.58 1018.05 1019.10 1019.84 1020.75 1021.45 1021.47 1021.48 1021.69 1021.91 1022.23 1022.12 1022.14 1022.19 1022.25 1022.20 1022.04 1022.17 1022.48 1022.39 1022.45 1022.87 1022.86
1002.76 1003.81 1004.54 1005.15 1006.11 1007.25 1008.10 1009.02 1009.84 1010.93 1011.64 1011.88 1012.15 1012.94 1013.75 1014.41 1015.21 1016.07 1016.63 1017.38 1017.92 1018.77 1019.71 1020.48 1020.86 1021.33 1021.30 1021.78 1022.25 1022.18 1022.75 1022.51 1022.60 1022.50 1022.53 1022.50 1022.71 1022.95 1023.27 1023.16 1022.96 1023.27 1023.20
1002.31 1003.33 1004.06 1005.44 1006.08 1007.31 1008.25 1009.15 1010.21 1011.02 1011.83 1012.20 1012.81 1013.17 1013.97 1014.84 1015.59 1016.29 1016.80 1017.67 1018.28 1018.97 1019.81 1020.45 1020.79 1021.03 1021.70 1022.19 1022.39 1022.60 1022.77 1022.70 1022.88 1023.13 1023.12 1023.65 1023.96 1024.22 1024.13 1023.69 1023.65 1024.01 1023.45
1001.97 1002.31 1003.65 1005.26 1005.95 1006.86 1008.12 1009.21 1010.17 1011.13 1011.67 1012.37 1012.98 1013.63 1014.34 1015.08 1015.80 1016.72 1017.19 1017.85 1018.41 1019.09 1019.88 1020.21 1020.49 1021.24 1021.65 1022.39 1022.78 1022.71 1022.53 1022.78 1023.10 1023.52 1023.85 1024.74 1025.20 1025.80 1025.68 1025.10 1025.10 1024.93 1024.59
1001.51 1001.92 1002.82 1004.05 1005.79 1006.23 1007.51 1008.55 1009.68 1010.65 1011.67 1012.43 1013.47 1014.19 1014.92 1015.53 1016.31 1016.80 1017.34 1017.90 1018.48 1019.16 1019.87 1020.09 1020.55 1021.18 1022.29 1023.19 1023.43 1023.11 1022.99 1022.73 1022.78 1023.59 1024.16 1024.59 1025.08 1025.26 1025.48 1025.44 1025.62 1025.93 1025.80
1002.00 1002.72 1002.60 1003.16 1004.15 1005.55 1006.47 1007.86 1009.61 1011.07 1011.85 1012.41 1013.28 1014.40 1015.03 1015.49 1016.11 1016.92 1017.49 1018.03 1018.59 1018.99 1019.53 1019.95 1020.54 1021.68 1022.81 1023.34 1023.34 1023.57 1022.85 1022.74 1022.99 1023.43 1023.83 1024.16 1024.76 1024.95 1025.38 1024.55 1024.74 1024.89 1025.54
1002.34 1002.93 1002.96 1003.16 1003.19 1004.02 1005.41 1007.08 1009.01 1010.65 1011.63 1012.24 1012.94 1013.97 1014.59 1015.44 1016.23 1016.83 1017.39 1017.68 1018.09 1018.96 1019.65 1020.24 1020.77 1021.63 1023.05 1023.49 1023.58 1023.80 1023.15 1023.32 1023.74 1023.86 1023.98 1024.53 1024.88 1026.45 1026.09 1025.09 1024.62 1024.73 1024.58
1002.83 1002.87 1003.21 1003.45 1003.54 1003.50 1004.50 1006.62 1008.31 1009.69 1011.09 1012.10 1012.84 1013.60 1014.16 1014.92 1015.95 1016.48 1017.01 1017.55 1018.45 1019.27 1019.74 1020.26 1020.63 1021.77 1023.21 1023.94 1024.12 1024.37 1023.37 1023.40 1023.87 1024.37 1024.93 1025.48 1025.62 1026.72 1026.69 1026.07 1025.06 1024.78 1024.45
1002.95 1003.42 1003.69 1003.79 1003.83 1003.70 1003.81 1006.11 1007.81 1009.30 1010.75 1011.64 1012.51 1013.18 1014.08 1014.94 1016.09 1016.80 1017.59 1018.31 1018.69 1018.99 1019.56 1020.21 1020.74 1021.70 1023.09 1024.01 1024.37 1023.96 1023.77 1023.88 1024.31 1024.99 1025.52 1026.37 1026.64 1027.16 1027.11 1026.59 1025.89 1025.46 1025.15
1003.34 1003.76 1003.73 1004.12 1004.53 1005.00 1004.80 1006.61 1008.05 1009.16 1010.69 1011.96 1012.81 1013.61 1014.39 1015.16 1016.28 1016.99 1017.95 1017.95 1018.44 1019.13 1019.67 1020.38 1021.11 1021.90 1022.88 1024.03 1024.42 1024.27 1024.45 1024.76 1025.16 1025.23 1025.54 1025.69 1027.08 1027.40 1027.03 1027.20 1026.52 1026.79 1026.63
1003.10 1003.67 1004.00 1004.72 1005.53 1006.47 1007.27 1008.23 1009.13 1009.87 1010.87 1012.06 1013.04 1014.00 1014.82 1015.82 1016.36 1017.31 1017.91 1017.95 1018.61 1019.24 1020.06 1020.55 1021.43 1021.95 1022.99 1024.00 1024.43 1024.88 1025.06 1025.96 1025.68 1025.55 1025.95 1026.36 1027.45 1027.35 1027.72 1027.24 1027.18 1027.13 1026.69
1002.95 1003.52 1004.28 1005.57 1006.65 1007.37 1008.31 1009.15 1010.13 1010.69 1011.48 1012.45 1013.38 1014.37 1015.19 1015.96 1016.65 1017.16 1017.57 1018.17 1018.68 1019.32 1020.05 1020.67 1021.25 1022.20 1022.90 1023.84 1024.48 1025.19 1025.68 1026.57 1026.18 1025.88 1026.67 1027.36 1027.62 1027.56 1027.30 1026.87 1026.82 1026.55 1025.64
1002.99 1003.64 1004.55 1005.77 1007.00 1007.89 1008.74 1009.72 1010.56 1011.35 1011.89 1012.67 1013.66 1014.49 1015.27 1015.97 1016.73 1017.21 1017.82 1017.99 1018.59 1019.26 1020.02 1020.50 1020.98 1021.88 1022.46 1023.31 1024.14 1024.88 1025.49 1026.30 1026.20 1025.96 1026.04 1026.88 1027.21 1026.78 1026.59 1026.33 1025.40 1025.40 1025.41
1002.96 1003.95 1005.01 1006.14 1007.30 1008.15 1009.12 1009.98 1010.84 1011.64 1012.22 1012.76 1013.65 1014.42 1015.20 1015.84 1016.67 1017.13 1017.67 1018.13 1018.85 1019.43 1019.83 1020.33 1020.72 1021.26 1022.06 1022.71 1023.55 1024.27 1024.82 1025.30 1025.56 1026.24 1026.24 1026.09 1025.56 1025.68 1025.45 1025.29 1025.09 1025.01 1025.01
1003.05 1004.00 1005.57 1006.69 1007.83 1008.61 1009.60 1009.76 1010.84 1011.45 1011.95 1012.56 1013.50 1014.19 1015.01 1015.71 1016.36 1016.97 1017.93 1018.59 1019.11 1019.52 1020.01 1020.39 1020.75 1021.65 1022.04 1022.96 1024.03 1024.97 1025.37 1025.56 1026.18 1026.22 1025.51 1025.31 1025.20 1025.29 1025.17 1024.99 1024.79 1024.72 1024.75
Wind_Speed
19 19 17 14 17 17 20 21 21 18 14 13 13 12 11 10 9 8 11 9 9 8 6 5 5 3 4 4 2 3 3 4 1 3 4 4 4 2 3 4 6 5 7
21 18 18 14 18 19 21 22 23 22 18 13 12 11 11 10 9 9 10 9 9 9 7 6 5 4 5 4 3 1 4 4 3 3 3 5 6 6 3 3 5 5 5
13 8 11 14 16 19 22 21 22 23 20 18 13 12 11 10 10 11 9 9 9 7 7 6 5 4 3 4 3 3 4 4 4 5 5 3 1 4 7 5 6 5 5
9 11 13 11 14 15 16 18 21 22 21 20 17 18 14 14 12 12 10 10 10 8 7 6 5 4 4 4 4 4 4 3 3 4 5 6 6 3 3 4 4 3 4
6 8 12 14 14 15 14 13 15 16 16 17 16 14 15 11 12 11 14 12 9 9 8 7 6 5 4 6 6 5 6 5 4 5 3 4 4 5 3 3 2 3 3
3 5 6 9 5 9 10 12 13 14 13 13 13 16 15 14 13 13 12 10 9 8 8 8 7 6 6 6 6 7 7 6 5 5 5 4 4 4 3 2 4 4 2
4 4 4 7 5 6 6 4 10 12 11 9 8 11 12 13 17 16 11 13 10 10 10 9 6 6 6 6 5 6 6 6 5 4 5 5 4 3 1 3 4 5 4
5 4 4 3 3 3 6 5 5 10 8 7 6 10 10 8 10 11 10 8 8 8 11 10 9 7 5 6 5 3 5 5 5 5 4 5 5 4 4 4 5 5 4
5 6 7 6 3 4 7 9 8 6 7 8 6 9 10 12 9 11 9 8 12 10 13 11 9 8 5 4 5 4 5 4 4 4 4 5 4 4 4 4 4 4 6
3 4 5 5 3 2 3 6 9 10 8 9 11 10 12 12 12 12 12 11 11 13 13 13 10 7 6 5 5 5 3 4 3 5 4 5 4 5 4 3 4 4 5
1 3 4 3 3 4 7 8 9 12 11 10 10 12 12 13 13 12 12 11 11 14 13 11 9 8 6 6 4 4 4 5 5 5 6 6 5 5 3 3 3 3 4
3 2 2 3 5 6 7 8 9 10 9 10 12 13 13 13 13 12 13 12 12 13 11 12 9 7 7 5 5 4 5 5 5 5 6 5 4 5 4 3 4 4 5
5 4 3 1 5 6 7 9 10 11 12 12 14 14 13 13 13 13 13 13 14 13 12 11 10 8 7 6 5 6 5 6 5 5 6 7 5 6 5 5 4 5 6
10 7 5 3 6 7 9 10 10 12 13 13 13 14 14 13 12 12 12 13 13 13 12 11 9 9 7 6 5 6 6 6 7 6 6 8 8 7 6 5 7 6 7
9 9 9 9 9 11 11 13 14 12 13 15 14 12 12 12 12 11 11 13 13 13 12 11 11 9 8 5 4 6 6 7 7 6 5 8 8 5 6 5 7 8 7
9 6 9 9 11 12 13 15 15 13 10 11 10 9 11 11 11 11 11 13 13 13 11 11 10 9 6 5 5 2 6 6 6 5 5 8 4 4 5 4 0 5 6
3 4 4 8 12 13 13 14 14 14 13 12 14 12 12 12 12 11 11 12 13 13 11 10 10 10 8 5 4 6 6 6 6 5 4 4 3 1 7 5 7 10 11
3 3 3 5 6 14 14 15 16 16 13 13 14 13 13 13 12 14 14 13 12 12 10 10 11 11 8 6 1 5 6 6 6 5 5 2 3 9 8 8 7 7 7
5 5 5 6 7 9 15 17 15 14 12 13 14 14 15 15 14 14 14 12 11 10 10 10 10 11 9 6 1 7 6 6 6 4 6 5 4 11 10 7 8 8 7
5 7 8 7 7 9 8 17 14 13 13 14 14 13 14 15 14 12 13 12 12 12 9 10 9 12 11 7 1 5 4 4 4 4 5 6 7 7 7 7 8 8 9
4 7 6 7 7 7 4 13 12 13 11 12 12 12 13 13 13 13 10 12 12 10 10 10 10 9 11 9 5 6 4 3 3 2 1 3 5 6 6 7 6 8 11
3 4 4 6 5 4 4 7 8 10 13 14 14 15 14 11 12 15 13 13 12 12 11 11 8 7 9 11 7 6 9 3 2 1 1 2 6 6 8 7 8 10 9
5 4 3 3 2 5 6 9 9 12 14 14 14 13 14 13 13 13 13 10 11 9 8 9 9 8 7 7 9 6 5 1 2 2 4 4 6 7 9 6 6 8 6
3 1 3 5 5 6 8 10 12 12 14 14 15 14 14 13 12 10 8 8 8 8 8 9 8 8 8 7 7 6 5 6 4 5 4 5 6 7 8 7 7 5 6
4 3 3 4 5 8 10 12 12 14 14 15 14 13 11 12 11 9 7 7 7 8 8 7 7 8 8 7 8 4 6 3 5 3 5 5 4 4 5 5 5 5 6
4 3 5 6 8 9 11 12 12 12 13 14 12 11 10 10 11 11 9 9 9 7 7 10 6 6 9 17 13 8 7 6 2 4 5 4 4 5 5 6 6 6 7
Wind_Direction
246 239 236 212 215 191 183 180 187 185 186 178 178 172 176 163 164 154 147 154 150 151 162 141 149 137 112 82 129 143 109 83 341 199 161 150 158 169 119 93 70 35 65
248 239 225 195 204 202 188 186 191 187 190 184 182 177 169 167 156 144 159 153 156 159 162 151 148 134 126 116 104 237 144 97 34 289 281 191 178 180 146 91 70 33 59
339 304 227 191 195 207 191 192 195 191 191 187 180 173 163 161 157 160 158 157 155 153 139 142 127 139 135 112 97 68 336 136 95 31 320 260 218 151 140 154 74 16 47
339 329 314 210 196 208 202 197 197 195 193 192 185 181 176 172 171 167 160 151 146 139 129 123 124 117 102 104 91 53 29 318 115 120 53 38 5 321 180 153 104 29 33
355 329 310 293 188 201 207 188 196 197 191 198 193 181 182 175 163 164 148 144 137 131 125 121 115 108 91 72 70 62 49 47 58 45 55 34 81 35 335 298 40 352 29
20 333 319 312 258 190 198 183 190 185 193 201 201 181 187 180 165 153 157 150 142 131 116 110 103 96 96 80 78 76 67 70 68 81 67 38 29 55 3 325 329 335 357
51 13 24 337 317 202 135 134 178 185 189 190 192 183 199 171 165 159 159 150 145 134 118 103 111 92 87 85 79 84 80 64 76 61 86 73 65 60 18 295 335 317 307
27 31 42 58 300 256 166 170 184 175 164 157 194 180 209 145 142 158 135 131 123 103 106 99 86 92 71 92 84 82 85 91 85 84 89 96 78 31 32 7 335 327 312
33 23 26 24 335 241 215 165 187 153 146 161 139 124 125 128 142 128 129 135 115 118 113 99 117 90 95 83 98 87 90 89 90 115 82 83 93 78 54 18 10 351 331
97 47 27 23 348 310 198 155 163 152 125 107 125 126 125 126 126 121 122 121 129 116 122 117 112 121 125 107 105 105 115 127 115 82 81 80 71 82 56 15 12 358 331
134 60 65 57 71 73 76 69 89 103 111 121 120 116 122 120 119 118 111 126 118 117 112 115 121 122 117 100 98 108 133 126 118 106 93 72 61 63 47 19 22 343 333
330 6 38 78 86 98 115 115 118 127 131 136 126 125 124 126 122 124 120 126 117 109 118 119 122 120 120 130 131 146 137 126 108 111 103 84 73 55 49 357 23 342 326
250 227 189 143 123 135 134 128 143 143 146 135 128 124 123 121 119 121 126 125 122 124 123 133 136 129 115 127 134 138 138 117 103 87 80 73 43 58 20 2 3 346 334
233 225 211 207 166 167 166 156 154 152 151 142 138 133 134 133 134 136 132 127 131 129 133 132 123 117 125 129 142 137 136 115 88 78 65 62 55 40 19 4 17 347 325
247 225 217 177 208 172 174 170 162 163 156 154 146 139 132 127 127 130 131 134 139 138 136 138 127 137 137 101 139 146 126 119 111 96 107 79 76 78 54 6 6 339 337
276 255 205 194 209 189 181 179 170 162 145 135 125 125 130 131 135 132 137 134 131 136 139 139 148 127 100 71 36 338 136 125 124 120 119 134 149 145 167 132 316 314 325
131 309 285 204 190 210 184 182 176 167 157 149 144 146 142 136 132 133 139 142 148 144 148 148 133 122 111 86 23 340 153 129 109 120 122 94 98 290 0 12 279 247 227
28 294 296 296 256 185 198 177 170 178 166 153 149 148 145 141 144 151 155 153 142 148 148 153 144 127 109 122 140 317 138 120 115 91 62 47 41 51 356 347 331 319 311
312 340 345 320 289 276 186 173 168 171 158 162 157 156 155 150 157 154 149 139 140 149 155 159 147 129 127 131 144 304 134 124 108 96 75 10 14 36 6 328 325 317 307
0 350 345 326 319 285 200 168 162 165 173 167 159 152 155 144 152 139 140 150 165 162 151 155 147 133 128 127 124 330 106 113 124 143 129 91 30 358 350 334 324 306 326
23 2 357 346 15 355 118 162 164 166 153 147 142 139 134 136 140 137 147 159 154 151 151 151 139 153 132 132 111 24 101 140 186 171 171 82 49 340 336 321 310 334 325
20 25 4 7 37 45 119 134 140 127 132 138 138 138 141 141 139 146 158 160 155 152 148 150 152 147 134 128 119 91 54 31 196 127 23 360 356 319 308 293 344 320 309
338 52 347 104 113 139 139 137 131 133 136 139 139 140 138 145 146 154 155 158 163 156 153 159 158 155 155 134 125 128 117 87 252 68 35 325 300 275 267 228 277 287 298
266 193 200 189 177 160 152 143 145 146 145 142 146 145 147 145 147 149 165 161 159 159 160 171 162 162 165 160 162 169 173 198 213 179 224 244 264 245 250 257 247 310 314
264 186 185 191 176 155 152 148 148 156 157 150 147 146 146 146 149 158 160 158 155 171 170 174 166 165 176 177 170 165 186 185 73 6 248 256 268 295 297 305 307 307 310
287 175 157 173 181 168 155 149 160 169 160 153 152 151 152 153 162 156 143 117 117 111 143 144 147 83 107 134 139 129 104 94 74 243 250 274 285 293 305 310 314 314 310